UFO 1 (USA 98)

导读

UFO 1(又称USA 98)是美国于1993年3月25日发射的一颗军用侦察卫星,隶属于美国国家侦察局的海洋监测卫星计划。它部署在近地轨道,主要任务是通过电子侦听和信号截获,对全球海域的舰船活动进行持续监视,收集电子情报信息。作为冷战末期美军空间侦察体系的重要组成部分,该卫星延续了美国依托太空优势掌控海洋态势的战略布局,服役期间为美国海军提供了关键的情报支持,其设计和应用也体现了当时美国在军用卫星技术领域的先进水平。

Basic Information
目录编号:
22563
目录名称:
UFO 1 (USA 98)
国际标识:
1993-015A
轨道中心:
EARTH
卫星名称:
UFO 1 (USA 98)
卫星全名:
--
卫星状态:
在轨 (已飞行12164 天)
发射日期:
1993-03-25 UTC
国别 :
美国 (US)
星等 :
--
Orbit Information
数据来源 国际轨道数据 AOE轨道数据
星历时间 2026-07-13T04:40:55+0800
1天前
查看轨道信息
2026-07-13T00:00:00+0800
1天前
查看轨道信息
半长轴 42454.087km 42453.973km
偏心率 0.0003122 0.0003245
轨道倾角 25.868° 25.869°
近地点辐角 300.462° 301.592°
升交点赤经 71.908° 71.912°
平近点角 305.976° 235.142°
近地点 36062.695km 36062.059km
远地点 36089.205km 36089.613km
周期 1450.905分钟 1450.899分钟
每日圈数 0.992484 0.992488
Detailed Information
使用方式:
暂无
2D Orbit Map
3D Orbit Map
Orbit Altitude Analysis Chart
Orbit Inclination Analysis Chart
Orbit Comprehensive Analysis Chart
View Comprehensive Chart